Simultaneous Nadir Overpasses (SNOs) Predictions

Prediction of SNOs between AQUA and METOP-B Satellite Orbit:

Table of predicted SNOs for the next 14.0 days since TLE Epoch: 7/24/2020
Index Date (AQUA) Time (AQUA) Lat,Lon (AQUA) SZA (AQUA ) Date (METOP-B) Time (METOP-B) Lat,Lon (METOP-B) SZA (METOP-B ) Distance(km) Time Diff (sec)
1 07/26/2020 02:32:05 -73.44, -42.96 125.88 07/26/2020 02:30:55 -73.40, -44.51 125.84 49.53 70
2 07/26/2020 03:21:40 73.82, 123.86 54.54 07/26/2020 03:21:26 73.84, 123.85 54.57 2.29 14
3 07/26/2020 04:11:07 -73.91, -68.68 125.36 07/26/2020 04:12:06 -73.92, -68.63 125.36 2.28 59
4 07/28/2020 22:06:24 -73.63, 23.08 125.03 07/28/2020 22:05:12 -73.60, 22.35 125.02 23.13 72
5 07/28/2020 22:55:56 73.85,-169.77 55.23 07/28/2020 22:55:47 73.84,-169.74 55.21 1.80 9
6 07/28/2020 23:45:23 -73.94, -2.32 124.68 07/28/2020 23:46:27 -73.92, -2.22 124.71 3.58 64
7 07/31/2020 17:40:41 -73.77, 89.21 124.19 07/31/2020 17:39:28 -73.79, 89.22 124.15 2.32 73
8 07/31/2020 18:30:10 73.84,-103.30 55.90 07/31/2020 18:30:07 73.84,-103.34 55.90 1.16 3
9 07/31/2020 19:19:37 -73.92, 64.15 124.01 07/31/2020 19:20:47 -73.92, 64.18 124.02 1.02 70
10 08/03/2020 13:14:57 -73.81, 155.56 123.42 08/03/2020 13:13:49 -73.79, 155.62 123.43 3.25 68
11 08/03/2020 14:04:25 73.83, -36.84 56.61 08/03/2020 14:04:28 73.83, -36.94 56.62 3.02 3
12 08/03/2020 14:53:54 -74.02, 130.38 123.18 08/03/2020 14:55:06 -74.01, 130.82 123.21 13.47 72
13 08/06/2020 08:49:12 -73.81,-137.99 122.67 08/06/2020 08:48:10 -73.79,-137.98 122.68 2.36 62
14 08/06/2020 09:38:41 73.88, 29.49 57.42 08/06/2020 09:38:48 73.88, 29.58 57.42 2.58 7
